Phoenix Deer Valley, AZ

5:08 AM MST on November 13, 2019 (GMT -0700)
Phoenix-Deer Valley Municipal

Weather History for KDVT - September, 2019

Change the Weather History Date:

Thursday, September 5, 2019

  Actual Average Record
Temperature  
Mean Temperature 96 °F -  
Max Temperature 107 °F 97 °F 106 °F (2013)
Min Temperature 86 °F 76 °F 70 °F (2016)
Cooling Degree Days 32    
Growing Degree Days 46 (Base 50)    
Moisture  
Dew Point 56 °F    
Average Humidity 28    
Maximum Humidity 43    
Minimum Humidity 13    
Precipitation  
Precipitation 0.00 in - - ()
Sea Level Pressure  
Sea Level Pressure 29.84 in    
Wind  
Wind Speed 4 mph ()    
Max Wind Speed 12 mph    
Max Gust Speed -    
Visibility 10.0 miles    
Events      
Averages and records for this station are not official NWS values.
T = Trace of Precipitation, MM = Missing Value Source: Averaged Metar Reports

Daily Weather History Graph

Daily Weather History Graph

Search for Another Location

Airport or City:

Astronomy

Sep. 05, 2019 Rise Set
Actual Time 6:04 AM MST 6:48 PM MST
Civil Twilight 5:39 AM MST 7:13 PM MST
Nautical Twilight 5:09 AM MST 7:43 PM MST
Astronomical Twilight 4:39 AM MST 8:14 PM MST
Moon 12:55 PM MST (9/5) 11:27 PM MST (9/5)
Length of Visible Light 13h 34m
Length of Day
12h 43m
Waxing Crescent, 46% of the Moon is Illuminated
Sep 5
Waxing Crescent
Sep 5
First Quarter
Sep 13
Full
Sep 21
Last Quarter
Sep 28
New

Hourly Weather History & Observations

Time (MST) Temp. Heat Index Dew Point Humidity Pressure Visibility Wind Dir Wind Speed Gust Speed Precip Events Conditions
12:53 AM 91.0 °F 90.9 °F 61.0 °F 36% 29.83 in 10.0 mi South 3.5 mph - N/A   Clear
1:53 AM 89.1 °F 89.3 °F 62.1 °F 40% 29.84 in 10.0 mi East 5.8 mph - N/A   Clear
2:53 AM 88.0 °F 88.4 °F 62.1 °F 42% 29.84 in 10.0 mi ESE 3.5 mph - N/A   Clear
3:53 AM 88.0 °F 88.7 °F 63.0 °F 43% 29.85 in 10.0 mi Calm Calm - N/A   Clear
4:53 AM 88.0 °F 87.9 °F 61.0 °F 40% 29.86 in 10.0 mi NNE 5.8 mph - N/A   Clear
5:53 AM 86.0 °F 86.1 °F 61.0 °F 43% 29.87 in 10.0 mi Calm Calm - N/A   Clear
6:53 AM 87.1 °F 87.0 °F 61.0 °F 41% 29.88 in 10.0 mi NE 6.9 mph - N/A   Clear
7:53 AM 91.9 °F 92.5 °F 62.1 °F 37% 29.90 in 10.0 mi East 3.5 mph - N/A   Clear
8:53 AM 96.1 °F 96.4 °F 61.0 °F 31% 29.91 in 10.0 mi East 4.6 mph - N/A   Clear
9:53 AM 97.0 °F 97.4 °F 61.0 °F 30% 29.90 in 10.0 mi Variable 6.9 mph - N/A   Clear
10:53 AM 100.9 °F 99.1 °F 54.0 °F 21% 29.90 in 10.0 mi SE 8.1 mph - N/A   Clear
11:53 AM 102.9 °F - 52.0 °F 18% 29.87 in 10.0 mi Calm Calm - N/A   Clear
12:53 PM 104.0 °F - 48.9 °F 16% 29.86 in 10.0 mi South 10.4 mph - N/A   Clear
1:53 PM 104.0 °F - 46.9 °F 15% 29.83 in 10.0 mi Variable 4.6 mph - N/A   Clear
2:53 PM 107.1 °F - 48.0 °F 14% 29.80 in 10.0 mi South 9.2 mph - N/A   Clear
3:53 PM 105.1 °F - 46.9 °F 14% 29.78 in 10.0 mi Calm Calm - N/A   Clear
4:53 PM 106.0 °F - 46.0 °F 13% 29.77 in 10.0 mi South 10.4 mph - N/A   Clear
5:53 PM 105.1 °F - 46.0 °F 14% 29.77 in 10.0 mi South 10.4 mph - N/A   Clear
6:53 PM 100.9 °F 99.1 °F 54.0 °F 21% 29.79 in 10.0 mi SW 11.5 mph - N/A   Clear
7:53 PM 98.1 °F 96.4 °F 55.0 °F 24% 29.81 in 10.0 mi SW 8.1 mph - N/A   Clear
8:53 PM 97.0 °F 95.0 °F 55.0 °F 24% 29.83 in 10.0 mi WSW 5.8 mph - N/A   Clear
9:53 PM 95.0 °F 93.4 °F 55.9 °F 27% 29.85 in 10.0 mi SSW 3.5 mph - N/A   Clear
10:53 PM 93.0 °F 91.4 °F 55.9 °F 29% 29.85 in 10.0 mi NW 3.5 mph - N/A   Clear
11:53 PM 93.0 °F 91.7 °F 57.0 °F 30% 29.85 in 10.0 mi SW 6.9 mph - N/A   Clear